Погода в Ноглики

Погода в Ноглики : погода сейчас, прогноз погоды и архив. Всё, что Вы хотите узнать о погоде в Ноглики!

Хотите узнать прогноз погоды в Ноглики? Тогда Вам сюда: Погода в Ноглики

Поиск расширенной информации на нашем сайте:

Другие новости

Новости СМИ2

Главная страница сайта

Новости сайта

03.07.2017

Напоминаем, что на нашем специализированном сайте Метеоцентр.Азия вы можете получить высокодетализированные автоматические прогнозы погоды по пунктам России, СНГ и мира в авиационном формате (включающие направление и скорость ветра, видимость, явления погоды, количество и форму облачности, нижнюю и верхнюю границу облачности).

Рекомендуем: подбор тура пегас тур

Погода в Ноглики - сегодня

Время (UTC), дата Ветер
(°,м/с) 
Видим.   Явления Облачность Т
(°С)
Тd
(°С)
f(%) Тe
(°С)
Pmin
(гПа)
dP
(гПа)
Po
(мм)
O2
(г/м3)
Тmin Tmax R s Состояние
почвы
03 18.07.17 140 (ЮВ) 5-8{08}  20000 м    ясно 
+21.6 +11.4 52 +25  1006.8  -1.3  752  279           
06 18.07.17 150 (ЮВ) 6-9{11}  20000 м    ясно 
+21.8 +9.1 44 +22  1005.7  -1.1  751  279           
09 18.07.17 160 (Ю) 5-8{10}  20000 м    ясно 
+19.6 +9.2 51 +20  1005.1  -0.6  750  281    +23       
12 18.07.17 170 (Ю) 2-2{08}  10 км    ясно 
+10.8 +9.4 91 +11  1005.1  -0.2  750  289           
15 18.07.17 180 (Ю) 3-3{03}  10 км    ясно 
+9.6 +9 96 +9  1003.8  -1.2  749  290           
18 18.07.17 210 (ЮЗ) 2-5{05}  10 км    ясно 
+11.7 +10.9 95 +14  1002.2  -1.6  748  287           
21 18.07.17 140 (ЮВ) 2-3{05}  20000 м    8/0 верхняя 
[Ci fib]
+13.3 +12 92 +18  1001.4  -0.7  748  285  +8        сухая 
00 19.07.17 160 (Ю) 2-3{04}  20000 м    9/5 600 м кучево-дожд., верхняя 
[Cb cap|Ci sp]
+15.7 +11.6 77 +19  999.5  -1.9  746  282           
03 19.07.17 130 (ЮВ) 2-4{06}  10 км  слаб. ливневой дождь  10/10 400 м кучево-дожд. 
[Cb cap]
+16.7 +12.4 76 +23  997.8  -1.7  745  280           
06 19.07.17 140 (ЮВ) 3-4{04}  20000 м  {ливн. осадки}  9/5 600 м кучево-дожд., верхняя 
[Cb cap|Ci sp]
+15 +13.4 90 +21  996.7  -1.1  744  282           
09 19.07.17 230 (ЮЗ) 2-4{05}  20000 м    8/3 600 м средняя 
[Sc|Ac trans]
+17.7 +14.4 81 +27  996.8  0.1  744  279    +18.6  0.2     
12 19.07.17 170 (Ю) 5-7{11}  10 км    8/8 500 м кучево-дожд. 
[Cb cap]
+16 +13.3 84 +22  997.4  0.6  745  281           
15 19.07.17 220 (ЮЗ) 2-3{07}  10 км  {гроза}  10/10 720 м кучево-дожд. 
[Cb cap]
+15.2 +14.3 94 +24  998.3  0.9  745  282           
18 19.07.17 190 (Ю) 1-1{04}  10 км  {гроза}  9/9 630 м кучево-дожд. 
[Cb cap]
+15.5 +14.5 94 +25  998.1  -0.2  745  281           
21 19.07.17 240 (ЮЗ) 2-4{04}  20000 м    4/1 600 м средняя, верхняя 
[Sc|Ac trans|Ci fib]
+17 +15.1 89 +27  998.3  0.2  745  280  +15.2        влажная 
00 20.07.17 240 (ЮЗ) 3-6{08}  20000 м    4/3 600 м кучево-дожд., верхняя 
[Cb cap|Ci sp]
+23.3 +15.1 60 +32  998.2  745  274           
03 20.07.17 230 (ЮЗ) 5-9{11}  20000 м    9/5 600 м кучево-дожд., верхняя 
[Cb cap|Ci sp]
+25.7 +12.8 45 +31  998  -0.2  745  272           
06 20.07.17 250 (З) 5-9{09}  20000 м    8/3 1000 м кучево-дожд., верхняя 
[Cb cap|Ci sp]
+26 +12.8 44 +31  999.1  1.1  746  272           
09 20.07.17 200 (Ю) 2-4{09}  20000 м    6/0 средняя 
[Ac trans]
+21.5 +11.5 53 +25  1001.4  2.2  748  277    +26.8       
12 20.07.17 260 (З) 2-3{05}  10 км    9/5 600 м средняя 
[Sc|Ac trans]
+18.6 +12.9 69 +25  1003  1.6  749  280           
15 20.07.17 тихо () -1{03}  10 км    10/5 600 м верхняя 
[Sc|Ci sp]
+16.8 +13.4 80 +23  1002.9  -0.1  749  282           
18 20.07.17 250 (З) 1-1{03}  10 км    9/0 средняя, верхняя 
[Ac trans|Ci sp]
+14.9 +13.5 91 +22  1003.1  0.2  749  283           
21 20.07.17 270 (З) 2-3{03}  20000 м    6/0 средняя, верхняя 
[Ac trans|Ci sp]
+16.7 +13.9 84 +25  1003.7  0.6  749  282  +14        сухая 
00 21.07.17 тихо () -1{03}  20000 м    9/5 600 м средняя, верхняя 
[Sc|Ac trans|Ci fib]
+21.8 +16 70 +32  1002.9  -0.7  749  276           
03 21.07.17 070 (В) 3-4{06}  20000 м    9/3 600 м средняя, верхняя 
[Sc|Ac trans|Ci sp]
+19.2 +13.4 69 +26  1002.9  -0.1  749  279           
Время (UTC), дата Ветер
(°,м/с) 
Видим.   Явления Облачность Т
(°С)
Тd
(°С)
f(%) Тe
(°С)
Pmin
(гПа)
dP
(гПа)
Po
(мм)
O2
(г/м3)
Тmin Tmax R s Состояние
почвы

Для получения пояснительной информации подведите курсор к названию столбца.

ПОГОДА в Ноглики - архив

Всё, что Вы хотите узнать о погоде в Ноглики - удобно и подробно!

Выберите нужную дату (начиная с 1 января 2015* года) и нажмите кнопку "Найти".
Будут отображены архивные сводки погоды по пункту Ноглики, начиная с указанной даты.


Отображать данные в формате CSV (для использования в таблицах Excel)


Внимание! Наш архив погоды предназначен исключительно для личного некоммерческого использования в познавательных целях. Если Вам необходимы официальные справки о состоянии погоды (для производственных, юридических, коммерческих и т.п. целей), обращайтесь в органы Росгидромета.

*Примечание: данная дата относится к архиву по метеостанциям СССР (Россия, СНГ, Балтия).
Архив по метеостанциям Зарубежной Европы и Азии (кроме Китая) хранится 10 дней, по другим регионам земного шара (Китай, Африка, Америка, Австралия, Океания) - 1 день.

Ноглики - район местоположения метеостанции


Название, широта, долгота, высота метеостанции:
Ноглики 51.9°ш. 143.1°д. 34 м над ур. моря [Российская Федерация]

Дополнительная информация

В oтличие oт бoльшинства пoгoдных сайтoв мы публикуем пoдрoбную метеoинфoрмацию в детальнoм прoфессиoнальнoм фoрмате.

Характеристики температуры и влажнoсти вoздуха измеряются на высoте 2 м в тени вдали oт зданий и деревьев.
Скoрoсть ветра измеряется на высoте 10 м (на урoвне рoста челoвека скoрoсть ветра ниже в 1.5-2 раза). Если метеoстанция нахoдится в гoрoде или в лесу, тo скoрoсть ветра занижена на 2-4 м/с пo сравнению с oткрытым местoм. Скoрoсть ветра над акватoриями крупных рек и oзёр, а также на вершинах хoлмoв на 2-5 м/с выше, чем в oбычных услoвиях.
Атмoсфернoе давление в разных тoчках местнoсти мoжет значительнo oтличаться oт давления на метеoстанции, в зависимoсти oт услoвий рельефа (при пoдъёме на 10 м давление пoнижается примернo на 1 мм рт.ст.).